Погода в Костино

Россия / Рязанская область     54°48′17″N   39°40′03″E
темп.,
°C
ветер,
м/с
пор.,
м/с
влажн.,
%
обл.,
%
осадки,
мм/ч
давл.,
гПа
погр.,
м
16 апреля, пт
пт1600:00+12в3767100 0.8 1015127
03:00+11всв41075100 1.3 1016269
06:00+10всв41080100 0.9 1017303
09:00+12в5878100 2.1 1018583
12:00+16в5763100 0.1 1018912
15:00+17всв6758100 0.1 10181217
18:00+16всв6116699 0.0 1018709
21:00+13всв7157742 0.0 1018536
17 апреля, сб
сб1700:00+11в4118496 0.7 1019415
03:00+10всв41090100 2.1 1020381
06:00+9всв51092100 0.9 1020392
09:00+11всв61079100 1.4 1020523
12:00+16в71158100 0.0 1019964
15:00+17вюв61055100 1.4 10191552
18:00+15всв91660100 2.0 10171301
21:00+9ююз4694100 8.0 1020348
18 апреля, вс
вс1800:00+9вюв2693100 8.1 1020351
03:00+8юв2396100 8.3 1021100
06:00+8св2497100 3.1 1021223
09:00+7всв4794100 3.7 1021429
12:00+6всв4793100 1.6 1022437
15:00+6всв5991100 1.7 1023638
18:00+6всв4892100 0.0 1023582
21:00+6всв499295 0.0 1023502
19 апреля, пн
пн1900:00+6всв379387 0.0 1023388
03:00+5всв4895100 0.0 1024313
06:00+6в4894100 0.0 1024463
09:00+7всв478799 0.0 1024591
12:00+9в6777100 0.0 1024880
15:00+9в6976100 0.1 1024990
18:00+9в61176100 0.0 10241049
21:00+9в71372100 0.0 1023861
20 апреля, вт
вт2000:00+7в7147299 0.0 1022662
03:00+5в71580100 0.0 1021591
06:00+5в71680100 0.0 1019738
09:00+6в91677100 0.0 1017876
12:00+8в91878100 0.1 10141041
15:00+7вюв112085100 2.8 1011993
18:00+7вюв112290100 7.1 10091218
21:00+7вюв112289100 8.0 10081191